SL-16 DEB

Satellite information

Favourite Embed

Satellite Type and Status

DEBRISIN ORBIT

Key statistics

Satellite SL-16 DEB at a glance.

Uptime

11992

Days in orbit

Revolutions

≈ 14.0

Per day

Orbit

LEO

Low Earth Orbit

Inclination

70.8

Latest

Satellite identification and parameters

Extended collection of information and parameters for SL-16 DEB.

Object identification

Identified? True

Debris? True

Object name: SL-16 DEB

International designator: 1992-093BQ

Object number (NORAD): 22375

Object ID (CCSDS): 22375

Country: COMMONWEALTH OF INDEPENDENT STATES (CIS)

Current information (Y/N): Y

RCS size: MEDIUM

Orbital parameters

Period: 102.749 minutes

Inclination: 70.8145 deg

SMA: 7266.825 km

Apoapsis: 952.56 km

Periapsis: 824.82 km

RAAN: 273.0846 deg

Eccentricy: 0.00878931

Argument of periapsis: 33.3287 deg

Mean anomaly: 28.1961 deg

Mean motion: 14.01476152 rev/day

Mean motion (dot): 0.00000243 rev/day2

B* drag term: 0.00018576753 1/REarth

Two-line elements (TLE)

Creation date: Oct. 25, 2025, 3:11 a.m.

Reference frame: TEME

Reference center: EARTH

Epoch: Oct. 24, 2025, 11:21 p.m. UTC

TLE line 0: 0 SL-16 DEB

TLE line 1: 1 22375U 92093BQ 25297.97343421 .00000243 00000-0 18577-3 0 9990

TLE line 2: 2 22375 70.8145 273.0846 0087893 33.3287 28.1961 14.01476152676116

Live tracking on map

Real-time ground track for satellite SL-16 DEB.

In-orbit conjunctions

A list of the most updated potential collisions computed for object SL-16 DEB.

Target Orbit TCA Probability of collision Miss distance Type
RESURS O1 DEB SSO 2025-08-28 04:04:52 0.0002753523 23.0 (m) DEBRIS
CZ-6A DEB LEO 2025-01-15 22:56:57 0.0002381829 836.0 (m) DEBRIS
NOAA 16 DEB SSO 2024-12-05 17:29:26 0.0001897753 209.0 (m) DEBRIS

Associated space launch

Second generation ELING satellite

SL-16 DEB was lifted into orbit during the mission ‘Zenit-2 | Tselina-2 12’, on board a Zenit-2 space rocket.

The launch took place on Dec. 25, 1992, 5:56 a.m. from 45/1.

For more information about the launch, click the button.

Launch to space Zenit-2 | Tselina-2 12
Zenit-2 | Tselina-2 12

Agency: N/A

Status: Launch Successful

Launch date: Dec. 25, 1992, 5:56 a.m. UTC

Rocket: Zenit-2

Launch pad: 45/1

Location: Baikonur Cosmodrome, Republic of Kazakhstan

...

Latest news about this satellite

There are no fresh news available about this satellite. Check back as we update our databases every day.


Newsletter sign-up

Weekly statistics, charts and insights to help you stay on top of the space industry.